Time,TemperatureF,DewpointF,PressureIn,WindDirection,WindDirectionDegrees,WindSpeedMPH,WindSpeedGustMPH,Humidity,HourlyPrecipIn,Conditions,Clouds,dailyrainin,SolarRadiationWatts/m^2,SoftwareType,DateUTC
2013-11-14 00:01:00,32.4,18.4,30.20,SSW,204,7.0,7.0,56,0.00,,,0.00,0,Wunderground v.1.15,2013-11-14 06:01:00,
2013-11-14 00:02:00,32.4,18.4,30.20,SSW,192,6.0,7.0,56,0.00,,,0.00,0,Wunderground v.1.15,2013-11-14 06:02:00,
2013-11-14 00:04:00,32.4,18.4,30.20,South,191,7.0,9.0,56,0.00,,,0.00,0,Wunderground v.1.15,2013-11-14 06:04:00,
2013-11-14 00:07:00,32.3,18.3,30.20,SSW,207,6.0,9.0,56,0.00,,,0.00,0,Wunderground v.1.15,2013-11-14 06:07:00,
2013-11-14 00:08:00,32.3,18.3,30.20,South,181,6.0,9.0,56,0.00,,,0.00,0,Wunderground v.1.15,2013-11-14 06:08:00,
2013-11-14 00:10:00,32.3,18.3,30.20,South,170,6.0,6.0,56,0.00,,,0.00,0,Wunderground v.1.15,2013-11-14 06:10:00,
2013-11-14 00:12:00,32.3,18.3,30.20,SW,217,6.0,7.0,56,0.00,,,0.00,0,Wunderground v.1.15,2013-11-14 06:12:00,
2013-11-14 00:14:00,32.3,18.3,30.20,SSW,200,6.0,9.0,56,0.00,,,0.00,0,Wunderground v.1.15,2013-11-14 06:14:00,
2013-11-14 00:15:00,32.3,18.3,30.20,South,181,6.0,9.0,56,0.00,,,0.00,0,Wunderground v.1.15,2013-11-14 06:15:00,
2013-11-14 00:17:00,32.3,18.3,30.20,SSW,196,6.0,9.0,56,0.00,,,0.00,0,Wunderground v.1.15,2013-11-14 06:17:00,
2013-11-14 00:20:00,32.2,18.7,30.19,SSE,159,6.0,6.0,57,0.00,,,0.00,0,Wunderground v.1.15,2013-11-14 06:20:00,
2013-11-14 00:21:00,32.2,18.2,30.19,SSW,204,6.0,8.0,56,0.00,,,0.00,0,Wunderground v.1.15,2013-11-14 06:21:00,
2013-11-14 00:25:00,32.1,18.2,30.19,South,183,5.0,8.0,56,0.00,,,0.00,0,Wunderground v.1.15,2013-11-14 06:25:00,
2013-11-14 00:26:00,32.2,18.7,30.19,SW,216,5.0,8.0,57,0.00,,,0.00,0,Wunderground v.1.15,2013-11-14 06:26:00,
2013-11-14 00:28:00,32.1,18.6,30.19,SSE,166,6.0,8.0,57,0.00,,,0.00,0,Wunderground v.1.15,2013-11-14 06:28:00,
2013-11-14 00:30:00,32.1,18.6,30.19,SSW,192,6.0,10.0,57,0.00,,,0.00,0,Wunderground v.1.15,2013-11-14 06:30:00,
2013-11-14 00:31:00,32.1,18.6,30.19,SSE,165,6.0,12.0,57,0.00,,,0.00,0,Wunderground v.1.15,2013-11-14 06:31:00,
2013-11-14 00:34:00,32.0,18.5,30.19,South,172,5.0,12.0,57,0.00,,,0.00,0,Wunderground v.1.15,2013-11-14 06:34:00,
2013-11-14 00:36:00,32.0,18.5,30.19,South,185,5.0,12.0,57,0.00,,,0.00,0,Wunderground v.1.15,2013-11-14 06:36:00,
2013-11-14 00:37:00,32.0,18.5,30.19,South,184,5.0,12.0,57,0.00,,,0.00,0,Wunderground v.1.15,2013-11-14 06:37:00,
2013-11-14 00:38:00,31.9,18.4,30.19,South,186,5.0,12.0,57,0.00,,,0.00,0,Wunderground v.1.15,2013-11-14 06:38:00,
2013-11-14 00:39:00,31.9,18.4,30.19,SE,140,5.0,12.0,57,0.00,,,0.00,0,Wunderground v.1.15,2013-11-14 06:39:00,
2013-11-14 00:43:00,31.9,18.8,30.19,SSW,199,5.0,5.0,58,0.00,,,0.00,0,Wunderground v.1.15,2013-11-14 06:43:00,
2013-11-14 00:45:00,31.9,18.8,30.19,South,182,5.0,5.0,58,0.00,,,0.00,0,Wunderground v.1.15,2013-11-14 06:45:00,
2013-11-14 00:47:00,31.8,18.7,30.19,SSW,197,6.0,6.0,58,0.00,,,0.00,0,Wunderground v.1.15,2013-11-14 06:47:00,
2013-11-14 00:50:00,31.8,18.7,30.19,SSW,207,6.0,8.0,58,0.00,,,0.00,0,Wunderground v.1.15,2013-11-14 06:50:00,
2013-11-14 00:52:00,31.8,18.7,30.19,South,190,6.0,8.0,58,0.00,,,0.00,0,Wunderground v.1.15,2013-11-14 06:52:00,
2013-11-14 00:53:00,31.7,18.6,30.19,SSW,199,6.0,8.0,58,0.00,,,0.00,0,Wunderground v.1.15,2013-11-14 06:53:00,
2013-11-14 00:57:00,31.7,18.6,30.19,South,173,6.0,8.0,58,0.00,,,0.00,0,Wunderground v.1.15,2013-11-14 06:57:00,
2013-11-14 00:58:00,31.7,18.6,30.19,South,172,6.0,10.0,58,0.00,,,0.00,0,Wunderground v.1.15,2013-11-14 06:58:00,
2013-11-14 00:59:00,31.6,18.5,30.19,SSW,205,5.0,10.0,58,0.00,,,0.00,0,Wunderground v.1.15,2013-11-14 06:59:00,
2013-11-14 01:00:00,31.7,18.6,30.19,SSE,165,6.0,6.0,58,0.00,,,0.00,0,Wunderground v.1.15,2013-11-14 07:00:00,
2013-11-14 01:03:00,31.6,18.5,30.19,South,184,6.0,7.0,58,0.00,,,0.00,0,Wunderground v.1.15,2013-11-14 07:03:00,
2013-11-14 01:05:00,31.6,18.5,30.18,SSW,200,6.0,7.0,58,0.00,,,0.00,0,Wunderground v.1.15,2013-11-14 07:05:00,
2013-11-14 01:08:00,31.5,18.4,30.18,South,186,6.0,7.0,58,0.00,,,0.00,0,Wunderground v.1.15,2013-11-14 07:08:00,
2013-11-14 01:09:00,31.5,18.8,30.18,South,173,6.0,7.0,59,0.00,,,0.00,0,Wunderground v.1.15,2013-11-14 07:09:00,
2013-11-14 01:11:00,31.5,18.8,30.18,SSE,158,5.0,7.0,59,0.00,,,0.00,0,Wunderground v.1.15,2013-11-14 07:11:00,
2013-11-14 01:13:00,31.5,18.8,30.18,South,178,5.0,7.0,59,0.00,,,0.00,0,Wunderground v.1.15,2013-11-14 07:13:00,
2013-11-14 01:15:00,31.5,18.8,30.18,South,185,5.0,7.0,59,0.00,,,0.00,0,Wunderground v.1.15,2013-11-14 07:15:00,
2013-11-14 01:16:00,31.5,18.8,30.18,South,188,5.0,9.0,59,0.00,,,0.00,0,Wunderground v.1.15,2013-11-14 07:16:00,
2013-11-14 01:17:00,31.4,18.7,30.18,SSE,162,5.0,9.0,59,0.00,,,0.00,0,Wunderground v.1.15,2013-11-14 07:17:00,
2013-11-14 01:20:00,31.4,18.7,30.18,South,186,5.0,6.0,59,0.00,,,0.00,0,Wunderground v.1.15,2013-11-14 07:20:00,
2013-11-14 01:21:00,31.3,18.6,30.19,SSE,166,5.0,6.0,59,0.00,,,0.00,0,Wunderground v.1.15,2013-11-14 07:21:00,
2013-11-14 01:22:00,31.3,18.6,30.18,South,182,5.0,6.0,59,0.00,,,0.00,0,Wunderground v.1.15,2013-11-14 07:22:00,
2013-11-14 01:24:00,31.3,18.6,30.18,SSW,205,5.0,8.0,59,0.00,,,0.00,0,Wunderground v.1.15,2013-11-14 07:24:00,
2013-11-14 01:28:00,31.2,18.9,30.19,South,188,5.0,8.0,60,0.00,,,0.00,0,Wunderground v.1.15,2013-11-14 07:28:00,
2013-11-14 01:29:00,31.2,18.9,30.19,South,179,5.0,8.0,60,0.00,,,0.00,0,Wunderground v.1.15,2013-11-14 07:29:00,
2013-11-14 01:30:00,31.2,18.9,30.19,SSW,208,5.0,5.0,60,0.00,,,0.00,0,Wunderground v.1.15,2013-11-14 07:30:00,
2013-11-14 01:36:00,31.1,18.8,30.19,South,177,5.0,8.0,60,0.00,,,0.00,0,Wunderground v.1.15,2013-11-14 07:36:00,
2013-11-14 01:37:00,31.1,18.8,30.18,South,189,5.0,8.0,60,0.00,,,0.00,0,Wunderground v.1.15,2013-11-14 07:37:00,
2013-11-14 01:38:00,31.1,18.8,30.18,South,186,5.0,8.0,60,0.00,,,0.00,0,Wunderground v.1.15,2013-11-14 07:38:00,
2013-11-14 01:39:00,31.1,19.2,30.19,South,179,5.0,8.0,61,0.00,,,0.00,0,Wunderground v.1.15,2013-11-14 07:39:00,
2013-11-14 01:41:00,31.0,19.1,30.19,South,182,5.0,5.0,61,0.00,,,0.00,0,Wunderground v.1.15,2013-11-14 07:41:00,
2013-11-14 01:43:00,31.0,19.1,30.19,South,184,5.0,7.0,61,0.00,,,0.00,0,Wunderground v.1.15,2013-11-14 07:43:00,
2013-11-14 01:44:00,31.0,19.1,30.18,SSW,193,5.0,7.0,61,0.00,,,0.00,0,Wunderground v.1.15,2013-11-14 07:44:00,
2013-11-14 01:45:00,31.0,19.1,30.18,SSE,160,5.0,7.0,61,0.00,,,0.00,0,Wunderground v.1.15,2013-11-14 07:45:00,
2013-11-14 01:47:00,30.9,19.0,30.18,SSW,193,5.0,7.0,61,0.00,,,0.00,0,Wunderground v.1.15,2013-11-14 07:47:00,
2013-11-14 01:48:00,30.9,19.0,30.18,SSW,210,5.0,7.0,61,0.00,,,0.00,0,Wunderground v.1.15,2013-11-14 07:48:00,
2013-11-14 01:49:00,30.9,19.0,30.18,SSW,193,5.0,7.0,61,0.00,,,0.00,0,Wunderground v.1.15,2013-11-14 07:49:00,
2013-11-14 01:52:00,30.8,18.9,30.18,South,190,5.0,5.0,61,0.00,,,0.00,0,Wunderground v.1.15,2013-11-14 07:52:00,
2013-11-14 01:53:00,30.8,18.9,30.18,South,179,5.0,5.0,61,0.00,,,0.00,0,Wunderground v.1.15,2013-11-14 07:53:00,
2013-11-14 01:57:00,30.7,18.8,30.18,SSW,200,4.0,8.0,61,0.00,,,0.00,0,Wunderground v.1.15,2013-11-14 07:57:00,
2013-11-14 01:58:00,30.7,18.8,30.18,South,169,4.0,8.0,61,0.00,,,0.00,0,Wunderground v.1.15,2013-11-14 07:58:00,
2013-11-14 02:00:00,30.7,19.2,30.18,SSW,198,4.0,6.0,62,0.00,,,0.00,0,Wunderground v.1.15,2013-11-14 08:00:00,
2013-11-14 02:01:00,30.7,19.2,30.18,South,182,4.0,6.0,62,0.00,,,0.00,0,Wunderground v.1.15,2013-11-14 08:01:00,
2013-11-14 02:02:00,30.6,19.1,30.18,South,190,4.0,6.0,62,0.00,,,0.00,0,Wunderground v.1.15,2013-11-14 08:02:00,
2013-11-14 02:05:00,30.6,19.1,30.18,South,187,5.0,6.0,62,0.00,,,0.00,0,Wunderground v.1.15,2013-11-14 08:05:00,
2013-11-14 02:08:00,30.5,19.0,30.18,South,174,4.0,6.0,62,0.00,,,0.00,0,Wunderground v.1.15,2013-11-14 08:08:00,
2013-11-14 02:09:00,30.5,19.4,30.18,South,185,4.0,7.0,63,0.00,,,0.00,0,Wunderground v.1.15,2013-11-14 08:09:00,
2013-11-14 02:10:00,30.5,19.4,30.18,South,178,4.0,6.0,63,0.00,,,0.00,0,Wunderground v.1.15,2013-11-14 08:10:00,
2013-11-14 02:11:00,30.5,19.0,30.18,SSW,197,4.0,6.0,62,0.00,,,0.00,0,Wunderground v.1.15,2013-11-14 08:11:00,
2013-11-14 02:13:00,30.5,19.4,30.18,South,181,4.0,6.0,63,0.00,,,0.00,0,Wunderground v.1.15,2013-11-14 08:13:00,
2013-11-14 02:16:00,30.5,19.4,30.17,South,184,4.0,6.0,63,0.00,,,0.00,0,Wunderground v.1.15,2013-11-14 08:16:00,
2013-11-14 02:17:00,30.5,19.4,30.17,South,175,4.0,6.0,63,0.00,,,0.00,0,Wunderground v.1.15,2013-11-14 08:17:00,
2013-11-14 02:18:00,30.4,19.3,30.17,SSW,192,4.0,6.0,63,0.00,,,0.00,0,Wunderground v.1.15,2013-11-14 08:18:00,
2013-11-14 02:20:00,30.4,19.3,30.17,South,173,4.0,7.0,63,0.00,,,0.00,0,Wunderground v.1.15,2013-11-14 08:20:00,
2013-11-14 02:22:00,30.4,19.3,30.17,South,180,4.0,7.0,63,0.00,,,0.00,0,Wunderground v.1.15,2013-11-14 08:22:00,
2013-11-14 02:23:00,30.4,19.7,30.17,SSW,196,4.0,7.0,64,0.00,,,0.00,0,Wunderground v.1.15,2013-11-14 08:23:00,
2013-11-14 02:24:00,30.4,19.3,30.17,SSE,157,4.0,7.0,63,0.00,,,0.00,0,Wunderground v.1.15,2013-11-14 08:24:00,
2013-11-14 02:25:00,30.4,19.3,30.17,SSW,202,4.0,7.0,63,0.00,,,0.00,0,Wunderground v.1.15,2013-11-14 08:25:00,
2013-11-14 02:28:00,30.3,19.6,30.17,South,184,4.0,7.0,64,0.00,,,0.00,0,Wunderground v.1.15,2013-11-14 08:28:00,
2013-11-14 02:29:00,30.3,19.6,30.17,South,182,4.0,7.0,64,0.00,,,0.00,0,Wunderground v.1.15,2013-11-14 08:29:00,
2013-11-14 02:30:00,30.3,19.6,30.17,SSW,195,5.0,7.0,64,0.00,,,0.00,0,Wunderground v.1.15,2013-11-14 08:30:00,
2013-11-14 02:31:00,30.3,19.6,30.17,South,177,5.0,9.0,64,0.00,,,0.00,0,Wunderground v.1.15,2013-11-14 08:31:00,
2013-11-14 02:35:00,30.3,19.6,30.17,SSW,198,5.0,9.0,64,0.00,,,0.00,0,Wunderground v.1.15,2013-11-14 08:35:00,
2013-11-14 02:36:00,30.3,19.6,30.17,SSW,202,5.0,9.0,64,0.00,,,0.00,0,Wunderground v.1.15,2013-11-14 08:36:00,
2013-11-14 02:37:00,30.3,19.6,30.17,South,190,5.0,9.0,64,0.00,,,0.00,0,Wunderground v.1.15,2013-11-14 08:37:00,
2013-11-14 02:40:00,30.3,19.6,30.16,South,188,5.0,5.0,64,0.00,,,0.00,0,Wunderground v.1.15,2013-11-14 08:40:00,
2013-11-14 02:41:00,30.4,19.7,30.16,SSW,192,5.0,9.0,64,0.00,,,0.00,0,Wunderground v.1.15,2013-11-14 08:41:00,
2013-11-14 02:42:00,30.4,19.7,30.16,SSE,167,5.0,11.0,64,0.00,,,0.00,0,Wunderground v.1.15,2013-11-14 08:42:00,
2013-11-14 02:44:00,30.5,19.8,30.16,South,185,5.0,11.0,64,0.00,,,0.00,0,Wunderground v.1.15,2013-11-14 08:44:00,
2013-11-14 02:45:00,30.5,19.8,30.16,SSW,202,5.0,11.0,64,0.00,,,0.00,0,Wunderground v.1.15,2013-11-14 08:45:00,
2013-11-14 02:46:00,30.5,19.8,30.16,SSW,196,5.0,11.0,64,0.00,,,0.00,0,Wunderground v.1.15,2013-11-14 08:46:00,
2013-11-14 02:47:00,30.6,19.9,30.16,SSW,196,5.0,11.0,64,0.00,,,0.00,0,Wunderground v.1.15,2013-11-14 08:47:00,
2013-11-14 02:50:00,30.6,19.5,30.16,South,180,5.0,5.0,63,0.00,,,0.00,0,Wunderground v.1.15,2013-11-14 08:50:00,
2013-11-14 02:51:00,30.6,19.5,30.16,SSE,159,5.0,5.0,63,0.00,,,0.00,0,Wunderground v.1.15,2013-11-14 08:51:00,
2013-11-14 02:52:00,30.7,19.6,30.16,South,172,5.0,5.0,63,0.00,,,0.00,0,Wunderground v.1.15,2013-11-14 08:52:00,
2013-11-14 02:53:00,30.7,19.6,30.16,South,178,5.0,5.0,63,0.00,,,0.00,0,Wunderground v.1.15,2013-11-14 08:53:00,
2013-11-14 02:55:00,30.7,19.6,30.16,SSW,199,5.0,8.0,63,0.00,,,0.00,0,Wunderground v.1.15,2013-11-14 08:55:00,
2013-11-14 02:57:00,30.7,19.6,30.16,South,174,5.0,8.0,63,0.00,,,0.00,0,Wunderground v.1.15,2013-11-14 08:57:00,
2013-11-14 02:58:00,30.8,19.7,30.16,South,184,5.0,8.0,63,0.00,,,0.00,0,Wunderground v.1.15,2013-11-14 08:58:00,
2013-11-14 03:02:00,30.8,19.7,30.16,SSW,204,4.0,7.0,63,0.00,,,0.00,0,Wunderground v.1.15,2013-11-14 09:02:00,
2013-11-14 03:03:00,30.7,20.0,30.16,South,188,5.0,7.0,64,0.00,,,0.00,0,Wunderground v.1.15,2013-11-14 09:03:00,
2013-11-14 03:06:00,30.7,20.0,30.16,South,191,4.0,8.0,64,0.00,,,0.00,0,Wunderground v.1.15,2013-11-14 09:06:00,
2013-11-14 03:10:00,30.7,19.6,30.15,SSW,209,4.0,8.0,63,0.00,,,0.00,0,Wunderground v.1.15,2013-11-14 09:10:00,
2013-11-14 03:11:00,30.7,19.6,30.16,SSW,195,5.0,6.0,63,0.00,,,0.00,0,Wunderground v.1.15,2013-11-14 09:11:00,
2013-11-14 03:13:00,30.7,20.0,30.15,South,185,5.0,6.0,64,0.00,,,0.00,0,Wunderground v.1.15,2013-11-14 09:13:00,
2013-11-14 03:16:00,30.7,20.0,30.15,South,190,4.0,6.0,64,0.00,,,0.00,0,Wunderground v.1.15,2013-11-14 09:16:00,
2013-11-14 03:18:00,30.7,20.0,30.15,SSW,207,4.0,6.0,64,0.00,,,0.00,0,Wunderground v.1.15,2013-11-14 09:18:00,
2013-11-14 03:20:00,30.6,19.9,30.15,SSE,165,4.0,6.0,64,0.00,,,0.00,0,Wunderground v.1.15,2013-11-14 09:20:00,
2013-11-14 03:21:00,30.6,19.9,30.15,South,186,4.0,6.0,64,0.00,,,0.00,0,Wunderground v.1.15,2013-11-14 09:21:00,
2013-11-14 05:19:00,31.0,21.7,30.11,SSW,199,4.0,4.0,68,0.00,,,0.00,0,Wunderground v.1.15,2013-11-14 11:19:00,
2013-11-14 05:25:00,31.0,21.7,30.11,SSW,198,4.0,4.0,68,0.00,,,0.00,0,Wunderground v.1.15,2013-11-14 11:25:00,
2013-11-14 05:35:00,31.1,21.4,30.11,SSW,202,4.0,6.0,67,0.00,,,0.00,0,Wunderground v.1.15,2013-11-14 11:35:00,
2013-11-14 05:44:00,31.2,21.9,30.10,South,182,4.0,7.0,68,0.00,,,0.00,0,Wunderground v.1.15,2013-11-14 11:44:00,
2013-11-14 05:50:00,31.3,22.0,30.10,SSW,196,4.0,8.0,68,0.00,,,0.00,0,Wunderground v.1.15,2013-11-14 11:50:00,
2013-11-14 05:54:00,31.4,22.1,30.10,SW,219,4.0,5.0,68,0.00,,,0.00,0,Wunderground v.1.15,2013-11-14 11:54:00,
2013-11-14 05:59:00,31.5,21.8,30.10,SSW,207,4.0,5.0,67,0.00,,,0.00,0,Wunderground v.1.15,2013-11-14 11:59:00,
2013-11-14 06:10:00,31.7,22.0,30.10,South,190,4.0,7.0,67,0.00,,,0.00,0,Wunderground v.1.15,2013-11-14 12:10:00,
2013-11-14 06:14:00,31.9,22.2,30.10,SSW,210,3.0,7.0,67,0.00,,,0.00,0,Wunderground v.1.15,2013-11-14 12:14:00,
2013-11-14 06:20:00,31.8,22.1,30.10,South,175,4.0,8.0,67,0.00,,,0.00,0,Wunderground v.1.15,2013-11-14 12:20:00,
2013-11-14 06:29:00,32.2,22.1,30.10,SSW,202,4.0,4.0,66,0.00,,,0.00,0,Wunderground v.1.15,2013-11-14 12:29:00,
2013-11-14 06:35:00,32.3,22.6,30.10,South,173,4.0,5.0,67,0.00,,,0.00,0,Wunderground v.1.15,2013-11-14 12:35:00,
2013-11-14 06:39:00,32.5,22.4,30.10,SSW,205,4.0,8.0,66,0.00,,,0.00,0,Wunderground v.1.15,2013-11-14 12:39:00,
2013-11-14 06:45:00,32.7,22.6,30.10,South,178,4.0,8.0,66,0.00,,,0.00,0,Wunderground v.1.15,2013-11-14 12:45:00,
2013-11-14 06:49:00,33.0,22.5,30.10,South,175,5.0,7.0,65,0.00,,,0.00,0,Wunderground v.1.15,2013-11-14 12:49:00,
2013-11-14 06:55:00,33.3,22.4,30.10,SW,215,6.0,7.0,64,0.00,,,0.00,0,Wunderground v.1.15,2013-11-14 12:55:00,
2013-11-14 06:59:00,33.5,22.6,30.10,South,169,6.0,6.0,64,0.00,,,0.00,0,Wunderground v.1.15,2013-11-14 12:59:00,
2013-11-14 07:05:00,33.7,22.8,30.10,South,172,6.0,6.0,64,0.00,,,0.00,0,Wunderground v.1.15,2013-11-14 13:05:00,
2013-11-14 07:09:00,33.9,22.6,30.10,SSW,194,6.0,6.0,63,0.00,,,0.00,0,Wunderground v.1.15,2013-11-14 13:09:00,
2013-11-14 07:15:00,33.9,23.0,30.10,WSW,255,4.0,4.0,64,0.00,,,0.00,0,Wunderground v.1.15,2013-11-14 13:15:00,
2013-11-14 07:19:00,34.0,22.7,30.10,SSW,213,4.0,8.0,63,0.00,,,0.00,0,Wunderground v.1.15,2013-11-14 13:19:00,
2013-11-14 07:25:00,34.2,22.9,30.10,SW,223,6.0,8.0,63,0.00,,,0.00,0,Wunderground v.1.15,2013-11-14 13:25:00,
2013-11-14 07:29:00,34.4,23.1,30.09,South,191,6.0,8.0,63,0.00,,,0.00,0,Wunderground v.1.15,2013-11-14 13:29:00,
2013-11-14 07:35:00,34.8,23.1,30.09,SSW,207,6.0,7.0,62,0.00,,,0.00,0,Wunderground v.1.15,2013-11-14 13:35:00,
2013-11-14 07:39:00,35.4,23.3,30.09,South,191,6.0,7.0,61,0.00,,,0.00,0,Wunderground v.1.15,2013-11-14 13:39:00,
2013-11-14 07:45:00,36.1,23.5,30.10,South,184,6.0,11.0,60,0.00,,,0.00,0,Wunderground v.1.15,2013-11-14 13:45:00,
2013-11-14 07:49:00,36.6,23.6,30.10,SSW,192,6.0,9.0,59,0.00,,,0.00,0,Wunderground v.1.15,2013-11-14 13:49:00,
2013-11-14 07:55:00,37.0,24.0,30.10,South,169,7.0,11.0,59,0.00,,,0.00,0,Wunderground v.1.15,2013-11-14 13:55:00,
2013-11-14 08:04:00,37.8,23.9,30.10,SW,215,7.0,8.0,57,0.00,,,0.00,0,Wunderground v.1.15,2013-11-14 14:04:00,
2013-11-14 08:10:00,37.9,24.0,30.10,South,175,7.0,8.0,57,0.00,,,0.00,0,Wunderground v.1.15,2013-11-14 14:10:00,
2013-11-14 08:14:00,38.2,23.9,30.10,SW,216,7.0,7.0,56,0.00,,,0.00,0,Wunderground v.1.15,2013-11-14 14:14:00,
2013-11-14 08:20:00,38.3,24.0,30.10,SW,229,8.0,8.0,56,0.00,,,0.00,0,Wunderground v.1.15,2013-11-14 14:20:00,
2013-11-14 08:24:00,38.4,24.5,30.10,SW,223,8.0,15.0,57,0.00,,,0.00,0,Wunderground v.1.15,2013-11-14 14:24:00,
2013-11-14 08:30:00,38.4,24.1,30.10,South,175,9.0,15.0,56,0.00,,,0.00,0,Wunderground v.1.15,2013-11-14 14:30:00,
2013-11-14 08:40:00,38.8,24.4,30.10,SSE,157,8.0,8.0,56,0.00,,,0.00,0,Wunderground v.1.15,2013-11-14 14:40:00,
2013-11-14 08:49:00,39.9,24.6,30.10,SW,230,8.0,9.0,54,0.00,,,0.00,0,Wunderground v.1.15,2013-11-14 14:49:00,
2013-11-14 08:55:00,40.4,24.6,30.10,SW,220,8.0,9.0,53,0.00,,,0.00,0,Wunderground v.1.15,2013-11-14 14:55:00,
2013-11-14 09:04:00,41.3,25.0,30.09,South,190,8.0,8.0,52,0.00,,,0.00,0,Wunderground v.1.15,2013-11-14 15:04:00,
2013-11-14 09:10:00,41.6,25.3,30.09,SSW,207,9.0,9.0,52,0.00,,,0.00,0,Wunderground v.1.15,2013-11-14 15:10:00,
2013-11-14 09:15:00,42.3,25.4,30.10,SW,233,8.0,8.0,51,0.00,,,0.00,0,Wunderground v.1.15,2013-11-14 15:15:00,
2013-11-14 09:20:00,42.7,25.3,30.09,SSW,197,8.0,9.0,50,0.00,,,0.00,0,Wunderground v.1.15,2013-11-14 15:20:00,
2013-11-14 09:24:00,43.1,26.2,30.09,SSW,197,7.0,7.0,51,0.00,,,0.00,0,Wunderground v.1.15,2013-11-14 15:24:00,
2013-11-14 09:30:00,43.8,25.4,30.09,SSW,200,6.0,7.0,48,0.00,,,0.00,0,Wunderground v.1.15,2013-11-14 15:30:00,
2013-11-14 09:34:00,44.0,25.5,30.09,WSW,244,7.0,14.0,48,0.00,,,0.00,0,Wunderground v.1.15,2013-11-14 15:34:00,
2013-11-14 09:40:00,44.2,25.7,30.09,SSW,196,9.0,14.0,48,0.00,,,0.00,0,Wunderground v.1.15,2013-11-14 15:40:00,
2013-11-14 09:44:00,44.6,25.6,30.09,SW,233,9.0,9.0,47,0.00,,,0.00,0,Wunderground v.1.15,2013-11-14 15:44:00,
2013-11-14 09:50:00,44.8,25.8,30.09,SSE,165,7.0,9.0,47,0.00,,,0.00,0,Wunderground v.1.15,2013-11-14 15:50:00,
2013-11-14 09:54:00,45.0,26.0,30.09,South,183,8.0,8.0,47,0.00,,,0.00,14,Wunderground v.1.15,2013-11-14 15:54:00,
2013-11-14 10:00:00,45.3,25.7,30.08,SW,233,8.0,8.0,46,0.00,,,0.00,0,Wunderground v.1.15,2013-11-14 16:00:00,
2013-11-14 10:09:00,44.9,25.9,30.09,SSE,165,9.0,10.0,47,0.00,,,0.00,0,Wunderground v.1.15,2013-11-14 16:09:00,
2013-11-14 10:19:00,45.2,26.7,30.09,SSW,199,9.0,9.0,48,0.00,,,0.00,9,Wunderground v.1.15,2013-11-14 16:19:00,
2013-11-14 10:25:00,45.5,26.4,30.08,SSW,210,8.0,9.0,47,0.00,,,0.00,21,Wunderground v.1.15,2013-11-14 16:25:00,
2013-11-14 10:29:00,45.8,26.2,30.08,SW,217,8.0,12.0,46,0.00,,,0.00,16,Wunderground v.1.15,2013-11-14 16:29:00,
2013-11-14 10:35:00,45.8,27.2,30.08,South,189,9.0,12.0,48,0.00,,,0.00,33,Wunderground v.1.15,2013-11-14 16:35:00,
2013-11-14 10:39:00,46.5,26.8,30.07,SW,228,8.0,8.0,46,0.00,,,0.00,56,Wunderground v.1.15,2013-11-14 16:39:00,
2013-11-14 10:45:00,47.2,26.9,30.07,SW,227,7.0,8.0,45,0.00,,,0.00,63,Wunderground v.1.15,2013-11-14 16:45:00,
2013-11-14 10:49:00,47.7,27.4,30.07,SSW,197,7.0,7.0,45,0.00,,,0.00,70,Wunderground v.1.15,2013-11-14 16:49:00,
2013-11-14 10:55:00,47.8,26.4,30.07,SSW,210,8.0,8.0,43,0.00,,,0.00,56,Wunderground v.1.15,2013-11-14 16:55:00,
2013-11-14 10:59:00,47.7,27.4,30.07,South,180,8.0,16.0,45,0.00,,,0.00,56,Wunderground v.1.15,2013-11-14 16:59:00,
2013-11-14 11:05:00,47.7,26.8,30.06,SW,220,8.0,10.0,44,0.00,,,0.00,40,Wunderground v.1.15,2013-11-14 17:05:00,
2013-11-14 11:14:00,47.6,26.2,30.06,SW,219,8.0,10.0,43,0.00,,,0.00,56,Wunderground v.1.15,2013-11-14 17:14:00,
2013-11-14 11:20:00,47.7,26.8,30.05,SW,225,8.0,8.0,44,0.00,,,0.00,56,Wunderground v.1.15,2013-11-14 17:20:00,
2013-11-14 11:29:00,48.3,27.4,30.05,SSW,203,7.0,13.0,44,0.00,,,0.00,65,Wunderground v.1.15,2013-11-14 17:29:00,
2013-11-14 11:35:00,48.4,26.3,30.04,SW,230,8.0,13.0,42,0.00,,,0.00,37,Wunderground v.1.15,2013-11-14 17:35:00,
2013-11-14 11:39:00,48.5,27.0,30.04,SW,216,9.0,9.0,43,0.00,,,0.00,19,Wunderground v.1.15,2013-11-14 17:39:00,
2013-11-14 11:45:00,48.4,26.9,30.04,SW,230,8.0,14.0,43,0.00,,,0.00,23,Wunderground v.1.15,2013-11-14 17:45:00,
2013-11-14 11:49:00,48.4,27.5,30.03,SSW,207,8.0,8.0,44,0.00,,,0.00,42,Wunderground v.1.15,2013-11-14 17:49:00,
2013-11-14 11:55:00,48.7,27.2,30.03,WSW,250,8.0,8.0,43,0.00,,,0.00,54,Wunderground v.1.15,2013-11-14 17:55:00,
2013-11-14 11:59:00,49.1,27.5,30.03,SSW,198,7.0,8.0,43,0.00,,,0.00,60,Wunderground v.1.15,2013-11-14 17:59:00,
2013-11-14 12:05:00,49.4,28.4,30.03,SW,225,7.0,9.0,44,0.00,,,0.00,60,Wunderground v.1.15,2013-11-14 18:05:00,
2013-11-14 12:09:00,49.7,27.5,30.03,SW,219,8.0,11.0,42,0.00,,,0.00,54,Wunderground v.1.15,2013-11-14 18:09:00,
2013-11-14 12:15:00,49.8,27.6,30.02,South,171,8.0,9.0,42,0.00,,,0.00,83,Wunderground v.1.15,2013-11-14 18:15:00,
2013-11-14 12:19:00,50.2,26.8,30.02,SW,221,8.0,9.0,40,0.00,,,0.00,88,Wunderground v.1.15,2013-11-14 18:19:00,
2013-11-14 12:25:00,50.7,27.8,30.02,SW,216,8.0,8.0,41,0.00,,,0.00,95,Wunderground v.1.15,2013-11-14 18:25:00,
2013-11-14 12:29:00,51.3,27.8,30.02,SSW,192,9.0,10.0,40,0.00,,,0.00,97,Wunderground v.1.15,2013-11-14 18:29:00,
2013-11-14 12:35:00,51.5,26.7,30.02,SSW,202,10.0,15.0,38,0.00,,,0.00,54,Wunderground v.1.15,2013-11-14 18:35:00,
2013-11-14 12:39:00,51.4,27.2,30.01,South,186,10.0,10.0,39,0.00,,,0.00,47,Wunderground v.1.15,2013-11-14 18:39:00,
2013-11-14 12:45:00,51.5,27.3,30.01,South,186,9.0,10.0,39,0.00,,,0.00,56,Wunderground v.1.15,2013-11-14 18:45:00,
2013-11-14 12:49:00,51.7,27.5,30.01,SSW,209,8.0,8.0,39,0.00,,,0.00,60,Wunderground v.1.15,2013-11-14 18:49:00,
2013-11-14 12:55:00,52.1,26.6,30.01,SSW,200,8.0,9.0,37,0.00,,,0.00,62,Wunderground v.1.15,2013-11-14 18:55:00,
2013-11-14 12:59:00,52.3,28.1,30.01,SW,221,9.0,9.0,39,0.00,,,0.00,60,Wunderground v.1.15,2013-11-14 18:59:00,
2013-11-14 13:05:00,52.2,27.3,30.00,SSW,209,9.0,13.0,38,0.00,,,0.00,21,Wunderground v.1.15,2013-11-14 19:05:00,
2013-11-14 13:10:00,52.2,27.3,30.00,South,170,8.0,13.0,38,0.00,,,0.00,18,Wunderground v.1.15,2013-11-14 19:10:00,
2013-11-14 13:19:00,52.4,27.5,29.99,SSW,211,8.0,12.0,38,0.00,,,0.00,5,Wunderground v.1.15,2013-11-14 19:19:00,
2013-11-14 13:25:00,52.4,28.1,29.99,SSW,201,8.0,12.0,39,0.00,,,0.00,0,Wunderground v.1.15,2013-11-14 19:25:00,
2013-11-14 13:39:00,52.1,26.6,29.99,SSW,200,9.0,9.0,37,0.00,,,0.00,0,Wunderground v.1.15,2013-11-14 19:39:00,
2013-11-14 13:45:00,51.9,26.4,29.98,WSW,247,10.0,10.0,37,0.00,,,0.00,0,Wunderground v.1.15,2013-11-14 19:45:00,
2013-11-14 13:55:00,52.1,27.9,29.98,SW,223,8.0,9.0,39,0.00,,,0.00,0,Wunderground v.1.15,2013-11-14 19:55:00,
2013-11-14 13:59:00,52.5,28.2,29.98,South,181,7.0,10.0,39,0.00,,,0.00,0,Wunderground v.1.15,2013-11-14 19:59:00,
2013-11-14 14:05:00,52.7,26.5,29.97,SW,216,7.0,12.0,36,0.00,,,0.00,0,Wunderground v.1.15,2013-11-14 20:05:00,
2013-11-14 14:10:00,52.7,26.5,29.97,SSW,197,8.0,12.0,36,0.00,,,0.00,0,Wunderground v.1.15,2013-11-14 20:10:00,
2013-11-14 14:14:00,52.7,27.1,29.97,South,180,7.0,13.0,37,0.00,,,0.00,0,Wunderground v.1.15,2013-11-14 20:14:00,
2013-11-14 14:20:00,52.7,27.1,29.97,South,185,8.0,9.0,37,0.00,,,0.00,0,Wunderground v.1.15,2013-11-14 20:20:00,
2013-11-14 14:30:00,52.4,26.9,29.97,SSW,200,9.0,11.0,37,0.00,,,0.00,0,Wunderground v.1.15,2013-11-14 20:30:00,
2013-11-14 14:39:00,52.2,28.0,29.97,SSW,207,7.0,8.0,39,0.00,,,0.00,0,Wunderground v.1.15,2013-11-14 20:39:00,
2013-11-14 14:45:00,52.1,27.9,29.97,SSW,199,7.0,8.0,39,0.00,,,0.00,0,Wunderground v.1.15,2013-11-14 20:45:00,
2013-11-14 14:54:00,51.9,27.1,29.97,SSW,210,6.0,6.0,38,0.00,,,0.00,0,Wunderground v.1.15,2013-11-14 20:54:00,
2013-11-14 15:00:00,51.7,26.9,29.98,South,169,6.0,9.0,38,0.00,,,0.00,0,Wunderground v.1.15,2013-11-14 21:00:00,
2013-11-14 15:04:00,51.7,26.9,29.98,South,170,7.0,7.0,38,0.00,,,0.00,0,Wunderground v.1.15,2013-11-14 21:04:00,
2013-11-14 15:14:00,51.7,26.2,29.97,South,180,7.0,7.0,37,0.00,,,0.00,0,Wunderground v.1.15,2013-11-14 21:14:00,
2013-11-14 15:20:00,51.6,26.8,29.97,WSW,244,8.0,8.0,38,0.00,,,0.00,0,Wunderground v.1.15,2013-11-14 21:20:00,
2013-11-14 15:30:00,51.3,26.5,29.97,South,175,9.0,9.0,38,0.00,,,0.00,0,Wunderground v.1.15,2013-11-14 21:30:00,
2013-11-14 15:40:00,50.9,26.2,29.97,South,186,8.0,9.0,38,0.00,,,0.00,0,Wunderground v.1.15,2013-11-14 21:40:00,
2013-11-14 15:44:00,50.7,26.0,29.97,South,175,8.0,8.0,38,0.00,,,0.00,0,Wunderground v.1.15,2013-11-14 21:44:00,
2013-11-14 15:50:00,50.6,25.9,29.96,SSW,192,7.0,8.0,38,0.00,,,0.00,0,Wunderground v.1.15,2013-11-14 21:50:00,
2013-11-14 15:59:00,50.1,26.7,29.96,South,172,5.0,5.0,40,0.00,,,0.00,0,Wunderground v.1.15,2013-11-14 21:59:00,
2013-11-14 16:05:00,49.9,26.5,29.96,SSW,198,5.0,11.0,40,0.00,,,0.00,0,Wunderground v.1.15,2013-11-14 22:05:00,
2013-11-14 16:10:00,49.8,26.4,29.96,South,186,7.0,11.0,40,0.00,,,0.00,0,Wunderground v.1.15,2013-11-14 22:10:00,
2013-11-14 16:15:00,49.6,26.8,29.96,South,182,7.0,7.0,41,0.00,,,0.00,0,Wunderground v.1.15,2013-11-14 22:15:00,
2013-11-14 16:29:00,49.2,25.9,29.96,South,176,7.0,10.0,40,0.00,,,0.00,0,Wunderground v.1.15,2013-11-14 22:29:00,
2013-11-14 16:35:00,49.1,25.8,29.96,SSW,195,6.0,10.0,40,0.00,,,0.00,0,Wunderground v.1.15,2013-11-14 22:35:00,
2013-11-14 16:39:00,48.8,26.1,29.96,SSW,207,6.0,8.0,41,0.00,,,0.00,0,Wunderground v.1.15,2013-11-14 22:39:00,
2013-11-14 16:50:00,48.2,25.6,29.97,SW,216,5.0,5.0,41,0.00,,,0.00,0,Wunderground v.1.15,2013-11-14 22:50:00,
2013-11-14 16:55:00,47.9,25.3,29.97,South,188,5.0,5.0,41,0.00,,,0.00,0,Wunderground v.1.15,2013-11-14 22:55:00,
2013-11-14 17:00:00,47.7,25.7,29.97,SSE,161,5.0,5.0,42,0.00,,,0.00,0,Wunderground v.1.15,2013-11-14 23:00:00,
2013-11-14 17:10:00,47.2,25.8,29.97,SSW,198,4.0,4.0,43,0.00,,,0.00,0,Wunderground v.1.15,2013-11-14 23:10:00,
2013-11-14 17:19:00,46.6,25.3,29.97,South,173,4.0,4.0,43,0.00,,,0.00,0,Wunderground v.1.15,2013-11-14 23:19:00,
2013-11-14 17:25:00,46.4,25.6,29.98,SSW,192,4.0,4.0,44,0.00,,,0.00,0,Wunderground v.1.15,2013-11-14 23:25:00,
2013-11-14 17:29:00,46.2,24.9,29.98,South,188,3.0,4.0,43,0.00,,,0.00,0,Wunderground v.1.15,2013-11-14 23:29:00,
2013-11-14 17:35:00,46.0,25.3,29.97,South,180,4.0,4.0,44,0.00,,,0.00,0,Wunderground v.1.15,2013-11-14 23:35:00,
2013-11-14 17:39:00,45.8,25.1,29.98,SSW,192,3.0,4.0,44,0.00,,,0.00,0,Wunderground v.1.15,2013-11-14 23:39:00,
2013-11-14 17:45:00,45.4,25.3,29.98,SSW,200,3.0,4.0,45,0.00,,,0.00,0,Wunderground v.1.15,2013-11-14 23:45:00,
2013-11-14 17:49:00,45.2,25.1,29.98,South,190,3.0,3.0,45,0.00,,,0.00,0,Wunderground v.1.15,2013-11-14 23:49:00,
2013-11-14 17:55:00,44.9,24.8,29.98,SSW,206,3.0,5.0,45,0.00,,,0.00,0,Wunderground v.1.15,2013-11-14 23:55:00,
2013-11-14 17:59:00,44.7,25.2,29.98,SSW,196,3.0,3.0,46,0.00,,,0.00,0,Wunderground v.1.15,2013-11-14 23:59:00,
2013-11-14 18:05:00,44.5,25.0,29.98,SSW,202,3.0,7.0,46,0.00,,,0.00,0,Wunderground v.1.15,2013-11-15 00:05:00,
2013-11-14 18:10:00,44.3,24.8,29.98,South,189,3.0,7.0,46,0.00,,,0.00,0,Wunderground v.1.15,2013-11-15 00:10:00,
2013-11-14 18:20:00,43.9,24.4,29.99,South,188,4.0,4.0,46,0.00,,,0.00,0,Wunderground v.1.15,2013-11-15 00:20:00,
2013-11-14 18:25:00,43.8,24.9,29.99,SSW,199,3.0,4.0,47,0.00,,,0.00,0,Wunderground v.1.15,2013-11-15 00:25:00,
2013-11-14 18:30:00,43.8,24.3,29.99,SSW,201,4.0,5.0,46,0.00,,,0.00,0,Wunderground v.1.15,2013-11-15 00:30:00,
2013-11-14 18:40:00,43.9,24.4,29.98,SSW,203,4.0,4.0,46,0.00,,,0.00,0,Wunderground v.1.15,2013-11-15 00:40:00,
2013-11-14 18:45:00,43.8,24.3,29.99,South,176,4.0,4.0,46,0.00,,,0.00,0,Wunderground v.1.15,2013-11-15 00:45:00,
2013-11-14 18:55:00,43.6,24.7,29.99,SSW,195,4.0,4.0,47,0.00,,,0.00,0,Wunderground v.1.15,2013-11-15 00:55:00,
2013-11-14 19:00:00,43.6,24.2,29.99,South,176,4.0,4.0,46,0.00,,,0.00,0,Wunderground v.1.15,2013-11-15 01:00:00,
2013-11-14 19:15:00,43.4,24.5,29.99,SSW,196,4.0,4.0,47,0.00,,,0.00,0,Wunderground v.1.15,2013-11-15 01:15:00,
2013-11-14 19:19:00,43.3,24.4,29.99,South,190,3.0,4.0,47,0.00,,,0.00,0,Wunderground v.1.15,2013-11-15 01:19:00,
2013-11-14 19:25:00,43.1,24.2,29.99,SSW,203,3.0,5.0,47,0.00,,,0.00,0,Wunderground v.1.15,2013-11-15 01:25:00,
2013-11-14 19:35:00,42.9,24.0,29.99,SSW,212,3.0,5.0,47,0.00,,,0.00,0,Wunderground v.1.15,2013-11-15 01:35:00,
2013-11-14 19:40:00,42.8,23.9,29.99,SSW,197,4.0,5.0,47,0.00,,,0.00,0,Wunderground v.1.15,2013-11-15 01:40:00,
2013-11-14 19:44:00,42.8,23.9,29.99,South,184,4.0,4.0,47,0.00,,,0.00,0,Wunderground v.1.15,2013-11-15 01:44:00,
2013-11-14 19:50:00,42.7,23.8,29.99,South,190,4.0,6.0,47,0.00,,,0.00,0,Wunderground v.1.15,2013-11-15 01:50:00,
2013-11-14 20:00:00,42.6,23.8,29.99,SSW,198,4.0,4.0,47,0.00,,,0.00,0,Wunderground v.1.15,2013-11-15 02:00:00,
2013-11-14 20:05:00,42.5,23.7,29.99,SSE,168,4.0,4.0,47,0.00,,,0.00,0,Wunderground v.1.15,2013-11-15 02:05:00,
2013-11-14 20:10:00,42.4,23.6,29.99,SSE,168,4.0,4.0,47,0.00,,,0.00,0,Wunderground v.1.15,2013-11-15 02:10:00,
2013-11-14 20:20:00,42.3,23.5,29.98,SSW,196,4.0,4.0,47,0.00,,,0.00,0,Wunderground v.1.15,2013-11-15 02:20:00,
2013-11-14 20:25:00,42.2,23.9,29.99,South,173,3.0,4.0,48,0.00,,,0.00,0,Wunderground v.1.15,2013-11-15 02:25:00,
2013-11-14 20:45:00,41.7,23.4,29.99,SSW,198,3.0,4.0,48,0.00,,,0.00,0,Wunderground v.1.15,2013-11-15 02:45:00,
2013-11-14 20:50:00,41.5,23.2,29.99,SSW,194,3.0,4.0,48,0.00,,,0.00,0,Wunderground v.1.15,2013-11-15 02:50:00,
2013-11-14 20:55:00,41.3,23.1,29.99,South,180,3.0,3.0,48,0.00,,,0.00,0,Wunderground v.1.15,2013-11-15 02:55:00,
2013-11-14 21:00:00,41.0,23.3,29.99,SSW,213,2.0,2.0,49,0.00,,,0.00,0,Wunderground v.1.15,2013-11-15 03:00:00,
2013-11-14 21:05:00,40.7,23.0,29.99,SSW,213,2.0,2.0,49,0.00,,,0.00,0,Wunderground v.1.15,2013-11-15 03:05:00,
2013-11-14 21:09:00,40.5,22.8,29.99,SSW,205,2.0,3.0,49,0.00,,,0.00,0,Wunderground v.1.15,2013-11-15 03:09:00,
2013-11-14 21:15:00,40.3,23.1,29.99,South,191,2.0,3.0,50,0.00,,,0.00,0,Wunderground v.1.15,2013-11-15 03:15:00,
2013-11-14 21:25:00,40.0,22.8,29.98,SSW,194,2.0,2.0,50,0.00,,,0.00,0,Wunderground v.1.15,2013-11-15 03:25:00,
2013-11-14 21:30:00,39.7,23.0,29.98,South,175,2.0,2.0,51,0.00,,,0.00,0,Wunderground v.1.15,2013-11-15 03:30:00,
2013-11-14 21:35:00,39.5,22.8,29.98,South,191,2.0,2.0,51,0.00,,,0.00,0,Wunderground v.1.15,2013-11-15 03:35:00,
2013-11-14 21:40:00,39.4,22.8,29.98,SSW,206,3.0,3.0,51,0.00,,,0.00,0,Wunderground v.1.15,2013-11-15 03:40:00,
2013-11-14 21:55:00,38.8,22.7,29.99,South,184,2.0,3.0,52,0.00,,,0.00,0,Wunderground v.1.15,2013-11-15 03:55:00,
2013-11-14 22:00:00,38.8,22.7,29.99,South,172,3.0,3.0,52,0.00,,,0.00,0,Wunderground v.1.15,2013-11-15 04:00:00,
2013-11-14 22:05:00,39.0,22.8,29.99,South,184,3.0,3.0,52,0.00,,,0.00,0,Wunderground v.1.15,2013-11-15 04:05:00,
2013-11-14 22:20:00,38.5,22.8,29.98,SSW,192,2.0,3.0,53,0.00,,,0.00,0,Wunderground v.1.15,2013-11-15 04:20:00,
2013-11-14 22:25:00,38.4,22.3,29.98,SSW,199,3.0,3.0,52,0.00,,,0.00,0,Wunderground v.1.15,2013-11-15 04:25:00,
2013-11-14 22:30:00,38.4,22.3,29.98,South,175,2.0,4.0,52,0.00,,,0.00,0,Wunderground v.1.15,2013-11-15 04:30:00,
2013-11-14 22:35:00,38.4,22.3,29.98,South,185,2.0,4.0,52,0.00,,,0.00,0,Wunderground v.1.15,2013-11-15 04:35:00,
2013-11-14 22:45:00,38.4,22.3,29.98,South,178,3.0,3.0,52,0.00,,,0.00,0,Wunderground v.1.15,2013-11-15 04:45:00,
2013-11-14 22:49:00,38.4,22.3,29.98,South,182,3.0,3.0,52,0.00,,,0.00,0,Wunderground v.1.15,2013-11-15 04:49:00,
2013-11-14 22:55:00,38.4,22.3,29.98,South,184,3.0,6.0,52,0.00,,,0.00,0,Wunderground v.1.15,2013-11-15 04:55:00,
2013-11-14 23:05:00,38.7,21.6,29.98,South,190,4.0,4.0,50,0.00,,,0.00,0,Wunderground v.1.15,2013-11-15 05:05:00,
2013-11-14 23:10:00,38.8,22.2,29.98,South,189,3.0,4.0,51,0.00,,,0.00,0,Wunderground v.1.15,2013-11-15 05:10:00,
2013-11-14 23:14:00,38.8,22.2,29.98,South,184,3.0,4.0,51,0.00,,,0.00,0,Wunderground v.1.15,2013-11-15 05:14:00,
2013-11-14 23:20:00,38.7,22.1,29.98,South,177,3.0,3.0,51,0.00,,,0.00,0,Wunderground v.1.15,2013-11-15 05:20:00,
2013-11-14 23:24:00,38.5,21.9,29.98,South,190,3.0,3.0,51,0.00,,,0.00,0,Wunderground v.1.15,2013-11-15 05:24:00,
2013-11-14 23:30:00,38.3,21.7,29.98,SSW,194,3.0,3.0,51,0.00,,,0.00,0,Wunderground v.1.15,2013-11-15 05:30:00,
2013-11-14 23:35:00,38.3,21.7,29.98,South,184,3.0,3.0,51,0.00,,,0.00,0,Wunderground v.1.15,2013-11-15 05:35:00,
2013-11-14 23:40:00,38.2,21.6,29.98,South,178,3.0,3.0,51,0.00,,,0.00,0,Wunderground v.1.15,2013-11-15 05:40:00,
2013-11-14 23:44:00,38.1,22.0,29.98,South,178,3.0,5.0,52,0.00,,,0.00,0,Wunderground v.1.15,2013-11-15 05:44:00,
2013-11-14 23:50:00,38.0,21.9,29.98,SSW,194,4.0,5.0,52,0.00,,,0.00,0,Wunderground v.1.15,2013-11-15 05:50:00,
2013-11-14 23:55:00,37.9,21.8,29.98,South,186,4.0,4.0,52,0.00,,,0.00,0,Wunderground v.1.15,2013-11-15 05:55:00,